Location: Schommer Observatory
(40.5200°N, 74.4500°W)
Time: 06:29:34
(UTC-04:00)

Tiangong 1 - Visible Passes

Search period start: 21 July 2017 00:00
Search period end: 31 July 2017 00:00
Orbit: 315 x 343 km, 42.8° (Epoch: 20 July)

Date Brightness Start Highest point End Pass type
(mag) Time Alt. Az. Time Alt. Az. Time Alt. Az.
25 Jul 3.0 05:11:47 10° S 05:13:39 17° SSE 05:15:32 10° ESE visible
27 Jul 2.9 04:13:58 15° SSE 04:14:03 15° SSE 04:15:48 10° ESE visible
28 Jul 1.7 04:30:53 27° SSW 04:31:42 34° SSE 04:34:15 10° E visible
29 Jul 0.6 04:47:43 21° WSW 04:49:24 77° SSE 04:52:09 10° ENE visible
30 Jul 3.3 03:33:26 16° E 03:33:26 16° E 03:34:15 10° E visible
30 Jul 1.0 05:04:29 11° W 05:07:07 62° NNW 05:09:52 10° ENE visible
